JY1SAT (JO-97) (43803 NORAD) Tracking and Keplerian Element Data

This shows tracking and keplerian element data for the satellite.

Feedback or suggestion? Click here.




ElementValue
Catalog43803
NameJY1SAT (JO-97)
Epoch Orbit673
Epoch Day17.85885428
Epoch Year2019
RAAN91.5592
Inclination97.7605
Eccentricity0.0016586
Argument of Perigee114.1642
Mean Anonmoly246.1314
Mean Motion14.9515323
Decay Rate1.07E-06
L11 43803U 18099AX 19017.85885428 .00000107 00000-0 14975-4 0 9999
L22 43803 97.7605 91.5592 0016586 114.1642 246.1314 14.95153230 6730

Live tracking and technical data element details for JY1SAT (JO-97) (NORAD 43803). JY1SAT (JO-97) can be tracked NOW for your location showing map with azimuth and elevation plus other details from your city location.

Track the satellite on the map from your city or location and see movement details for azimuth, elevation, latitude, longitude, range, height, and movement on the map or in text.







IsCatalogInMostPopularTable: catalog: 43803, numindb: 21
Update: records affected: 1



GetName: 43803 JY1SAT (JO-97)

Hit Count: updated at: Fri, 18 Jan 2019 22:17:59 GMT